Weather History for Fort Lauderdale, FL

Change the Weather History Date:

Friday, January 4, 2013

  Actual Average Record
Temperature  
Mean Temperature 74 °F -  
Max Temperature 84 °F 77 °F 85 °F (1982)
Min Temperature 63 °F 61 °F 39 °F (2002)
Cooling Degree Days 8    
Growing Degree Days 24 (Base 50)    
Moisture  
Dew Point 67 °F    
Average Humidity 85    
Maximum Humidity 100    
Minimum Humidity 58    
Precipitation  
Precipitation 0.00 in - - ()
Sea Level Pressure  
Sea Level Pressure 30.18 in    
Wind  
Wind Speed 2 mph (NE)    
Max Wind Speed 9 mph    
Max Gust Speed -    
Visibility 10 miles    
Events Rain    
Averages and records for this station are not official NWS values.
T = Trace of Precipitation, MM = Missing Value Source: NWS Daily Summary

Daily Weather History Graph

Daily Weather History Graph

Search for Another Location

Airport:

Trip Planner

Search our weather history database for the weather conditions in past years. The results will help you decide how hot, cold, wet, or windy it might be!

Date:

Astronomy

Jan. 04, 2013 Rise Set
Actual Time 7:09 AM EST 5:42 PM EST
Civil Twilight 6:43 AM EST 6:07 PM EST
Nautical Twilight 6:15 AM EST 6:36 PM EST
Astronomical Twilight 5:47 AM EST 7:04 PM EST
Moon No Moon Rise 11:34 AM EST (1/4)
Length of Visible Light 11h 23m
Length of Day
10h 33m
Waning Gibbous, 55% of the Moon is Illuminated
Jan 4
Waning Gibbous
Jan 4
Last Quarter
Jan 11
New
Jan 18
First Quarter
Jan 26
Full

Hourly Weather History & Observations

Time (EST) Temp. Heat Index Dew Point Humidity Pressure Visibility Wind Dir Wind Speed Gust Speed Precip Events Conditions
12:53 AM 66.9 °F - 64.9 °F 93% 30.13 in 10.0 mi Calm Calm - N/A   Clear
1:53 AM 66.9 °F - 64.9 °F 93% 30.12 in 10.0 mi Calm Calm - N/A   Clear
2:53 AM 64.9 °F - 64.0 °F 97% 30.12 in 10.0 mi Calm Calm - N/A   Clear
3:53 AM 64.9 °F - 64.0 °F 97% 30.13 in 10.0 mi Calm Calm - N/A   Clear
4:53 AM 63.0 °F - 63.0 °F 100% 30.13 in 10.0 mi Calm Calm - N/A   Clear
5:34 AM 64.4 °F - 64.4 °F 100% 30.13 in 10.0 mi Calm Calm - N/A   Mostly Cloudy
5:53 AM 64.9 °F - 64.9 °F 100% 30.14 in 10.0 mi Calm Calm - N/A   Scattered Clouds
6:53 AM 64.0 °F - 64.0 °F 100% 30.15 in 10.0 mi Calm Calm - N/A   Scattered Clouds
7:53 AM 66.2 °F - 66.2 °F 100% 30.17 in 10.0 mi Calm Calm - N/A   Clear
8:53 AM 72.0 °F - 68.0 °F 87% 30.20 in 10.0 mi Calm Calm - N/A   Clear
9:53 AM 75.9 °F - 69.1 °F 79% 30.22 in 10.0 mi Calm Calm - N/A   Clear
10:53 AM 79.0 °F - 69.1 °F 72% 30.21 in 10.0 mi NNW 4.6 mph - N/A   Scattered Clouds
11:53 AM 81.0 °F 83.0 °F 66.0 °F 60% 30.19 in 10.0 mi Calm Calm - N/A   Scattered Clouds
12:53 PM 81.0 °F 82.7 °F 64.9 °F 58% 30.16 in 10.0 mi Variable 3.5 mph - N/A   Mostly Cloudy
1:53 PM 84.0 °F 87.0 °F 68.0 °F 58% 30.14 in 10.0 mi Variable 3.5 mph - N/A   Scattered Clouds
2:53 PM 77.0 °F - 70.0 °F 79% 30.14 in 10.0 mi East 9.2 mph - 0.00 in Rain Light Rain
3:53 PM 77.0 °F - 69.1 °F 76% 30.15 in 10.0 mi East 5.8 mph - 0.00 in   Mostly Cloudy
4:53 PM 77.0 °F - 69.1 °F 76% 30.16 in 10.0 mi East 9.2 mph - N/A   Scattered Clouds
5:53 PM 75.0 °F - 69.1 °F 82% 30.17 in 10.0 mi NE 4.6 mph - N/A   Scattered Clouds
6:53 PM 75.0 °F - 69.1 °F 82% 30.20 in 10.0 mi ENE 4.6 mph - N/A   Scattered Clouds
7:53 PM 75.0 °F - 69.1 °F 82% 30.22 in 10.0 mi NE 3.5 mph - N/A   Mostly Cloudy
8:44 PM 75.2 °F - 69.8 °F 83% 30.22 in 10.0 mi NNE 4.6 mph - N/A   Overcast
8:53 PM 75.0 °F - 69.1 °F 82% 30.23 in 10.0 mi Variable 3.5 mph - N/A   Mostly Cloudy
9:05 PM 73.4 °F - 69.8 °F 88% 30.23 in 10.0 mi North 4.6 mph - N/A   Scattered Clouds
9:53 PM 73.0 °F - 69.1 °F 87% 30.24 in 10.0 mi Calm Calm - N/A   Scattered Clouds
10:53 PM 71.1 °F - 68.0 °F 90% 30.24 in 10.0 mi North 4.6 mph - N/A   Scattered Clouds
11:53 PM 70.0 °F - 66.9 °F 90% 30.23 in 10.0 mi Calm Calm - N/A   Scattered Clouds